Location: Melbourne
(37.8170°S, 144.9670°E)
Time: 04:55:48
(UTC+11:00)

Vanguard 1 Rocket - Visible Passes

Search period start: 21 December 2014 00:00
Search period end: 31 December 2014 00:00
Orbit: 655 x 4225 km, 34.3° (Epoch: 17 December)

Date Brightness Start Highest point End Pass type
(mag) Time Alt. Az. Time Alt. Az. Time Alt. Az.
21 Dec 11.1 00:00:00 28° E 23:59:45 29° E 00:06:31 10° E visible
21 Dec 10.2 01:50:08 10° W 02:16:50 80° N 02:34:48 10° ENE visible
21 Dec 9.9 04:24:41 10° WSW 04:47:17 57° NNW 04:59:57 10° NE visible
21 Dec 10.5 22:06:33 10° NW 22:28:34 62° NNE 22:53:08 10° E visible
22 Dec 10.4 00:35:37 10° WNW 01:01:54 81° N 01:22:54 10° E visible
22 Dec 10.0 03:08:55 10° W 03:34:23 70° NNW 03:49:40 10° ENE visible
22 Dec 10.6 20:55:35 10° NNW 21:14:37 50° NE 21:38:48 10° ESE visible
22 Dec 10.5 23:22:08 10° WNW 23:46:38 76° NNE 00:10:16 10° E visible
23 Dec 10.2 01:53:40 10° W 02:20:19 78° N 02:38:35 10° ENE visible
23 Dec 10.0 04:28:12 10° WSW 04:50:22 50° NW 05:03:18 10° NE visible
23 Dec 10.5 22:09:45 10° NW 22:31:38 68° NNE 22:56:49 10° E visible
24 Dec 10.4 00:39:11 10° W 01:05:22 81° N 01:26:42 10° E visible
24 Dec 10.1 03:12:23 10° W 03:37:38 64° NNW 03:53:14 10° NE visible
24 Dec 10.5 20:58:31 10° NW 21:17:25 56° NNE 21:42:29 10° ESE visible
24 Dec 10.5 23:25:39 10° WNW 23:50:00 79° N 00:13:59 10° E visible
25 Dec 10.3 01:57:13 10° W 02:23:43 75° NNW 02:42:17 10° ENE visible
25 Dec 10.2 04:31:48 10° WSW 04:53:15 43° NW 05:06:24 10° NNE visible
25 Dec 10.5 22:13:09 10° WNW 22:34:49 73° NNE 23:00:27 10° E visible
26 Dec 10.4 00:42:48 10° W 01:08:50 80° N 01:30:26 10° ENE visible
26 Dec 10.2 03:15:53 10° WSW 03:40:44 58° NNW 03:56:38 10° NE visible
26 Dec 10.5 21:01:42 10° NW 21:20:22 63° NNE 21:46:05 10° E visible
26 Dec 10.5 23:29:16 10° W 23:53:25 81° N 00:17:42 10° E visible
27 Dec 10.3 02:00:46 10° W 02:27:00 70° NNW 02:45:51 10° ENE visible
27 Dec 10.3 04:35:36 10° WSW 04:55:58 36° NW 05:09:13 10° NNE visible
27 Dec 10.5 22:16:41 10° WNW 22:38:06 77° NNE 23:04:05 10° E visible
28 Dec 10.4 00:46:26 10° W 01:12:14 78° NNW 01:34:06 10° ENE visible
28 Dec 10.3 03:19:27 10° WSW 03:43:39 51° NW 03:59:49 10° NE visible
28 Dec 10.5 21:05:05 10° NW 21:23:28 69° NNE 21:49:38 10° E visible
28 Dec 10.5 23:32:57 10° W 23:56:52 81° N 00:21:22 10° E visible
29 Dec 10.3 02:04:19 10° W 02:30:08 65° NNW 02:49:16 10° NE visible
29 Dec 10.5 04:39:43 10° W 04:58:32 30° NW 05:11:37 10° N visible
29 Dec 10.5 22:20:20 10° WNW 22:41:30 80° N 23:07:42 10° E visible
30 Dec 10.4 00:50:04 10° W 01:15:33 74° NNW 01:37:39 10° ENE visible
30 Dec 10.4 03:23:07 10° WSW 03:46:24 44° NW 04:02:43 10° NNE visible
30 Dec 10.4 21:08:37 10° WNW 21:26:43 74° NNE 21:53:09 10° E visible
30 Dec 10.5 23:36:39 10° W 00:00:00 80° NNW 00:00:00 80° NNW visible
